Tracking 25378 objects as of 22-Jan-2022
HD Live streaming from Space Station
objects crossing your sky now

STARLINK-2685

Track STARLINK-2685 now!
10-day predictions
STARLINK-2685 is classified as:


NORAD ID: 48468
Int'l Code: 2021-040AS
Perigee: 553.5 km
Apogee: 555.4 km
Inclination: 53.1 °
Period: 95.6 minutes
Semi major axis: 6925 km
RCS: Unknown
Launch date: May 9, 2021
Source: United States (US)
Launch site: AIR FORCE EASTERN TEST RANGE (AFETR)
aabbcc
Your satellite tracking list
Your tracking list is empty




NASA's NSSDC Master Catalog

Two Line Element Set (TLE):
1 48468U 21040AS  22021.64114274 -.00000893  00000-0 -41086-4 0  9998
2 48468  53.0556 121.5043 0001417  83.4714 276.6437 15.06372918 40474
Source of the keplerian elements: AFSPC